Wind_Speed
11 12 12 12 13 13 14 14 15 16 16 16 16 15 15 15 15 16 16 16 17 17 18 19 19 21 23 23 24 24 22 24 28 29 28 29 30 29 28 28 27 25
12 12 12 12 13 14 16 15 15 16 17 18 17 16 16 15 16 18 17 17 17 17 18 19 19 21 23 24 26 25 23 25 28 28 28 30 30 29 30 29 27 25
13 13 13 13 13 14 16 16 15 16 17 18 17 16 17 16 17 19 20 20 18 17 20 20 20 22 24 24 25 26 26 26 28 29 28 28 29 30 30 29 27 24
14 14 13 13 14 14 15 16 17 17 17 18 16 15 16 16 18 18 20 20 18 18 21 21 20 22 23 22 23 24 27 27 26 27 28 28 29 31 29 26 25 24
15 14 14 14 14 15 15 16 17 18 18 18 17 16 15 16 18 19 19 18 18 19 19 19 19 20 21 22 22 23 25 28 25 22 26 28 28 30 28 26 26 25
15 15 14 14 15 16 16 16 16 17 18 19 19 18 16 16 17 19 19 18 19 19 17 17 18 19 20 21 23 23 22 27 29 24 25 27 26 26 27 26 27 27
16 16 15 16 17 16 16 16 17 17 18 19 19 19 18 18 17 19 20 19 19 19 18 19 19 19 21 20 22 24 23 26 31 28 27 27 25 25 27 26 27 27
16 16 16 17 18 17 16 17 18 18 19 19 20 20 20 20 19 20 21 21 20 19 19 20 20 20 20 18 20 23 24 27 29 28 27 25 21 23 25 24 24 25
17 17 17 18 18 18 18 19 19 19 19 19 20 20 20 22 22 21 22 22 21 20 19 19 19 19 19 18 19 20 21 25 27 26 26 24 22 23 24 22 22 24
18 18 18 19 19 19 19 20 20 19 19 19 20 20 20 22 23 23 23 23 22 21 21 19 18 19 19 18 18 18 19 22 24 23 25 26 25 25 24 23 24 26
19 19 19 20 20 20 21 20 20 20 20 20 20 21 20 21 23 23 23 23 23 22 21 20 16 16 18 18 17 16 18 20 21 21 23 25 24 24 23 24 27 29
20 19 20 21 21 21 21 21 21 21 21 21 21 21 21 21 22 23 23 23 24 23 22 19 15 15 18 20 19 18 17 19 20 19 20 22 22 23 24 25 26 28
20 20 21 22 22 22 21 21 21 21 21 21 21 22 22 22 22 23 24 24 23 23 23 20 17 17 20 21 22 19 17 18 19 19 18 18 19 21 22 22 23 24
20 20 21 22 22 22 22 22 21 21 22 22 22 22 23 24 25 24 23 24 23 23 24 22 18 18 20 20 18 16 17 18 19 20 20 18 18 19 20 23 24 23
20 20 21 21 22 22 23 23 23 23 23 23 23 23 24 26 27 27 25 22 21 21 23 22 18 17 18 19 18 18 20 19 18 20 21 20 19 19 20 24 24 22
20 21 21 21 22 23 24 24 24 24 23 24 24 24 26 27 28 28 27 26 24 22 21 19 15 13 15 16 18 21 22 19 17 20 20 19 19 20 22 24 22 21
20 21 21 21 22 23 23 24 25 24 24 24 25 25 25 27 28 29 28 27 26 25 23 19 16 14 13 13 15 19 20 19 19 21 20 18 18 19 22 22 21 22
20 21 21 22 23 23 23 24 24 25 25 25 26 27 26 26 27 29 29 28 28 26 23 21 20 18 15 12 11 16 20 22 22 20 18 18 18 18 20 21 22 24
21 21 21 22 23 23 23 23 24 25 25 25 26 27 27 26 26 27 27 28 30 29 25 22 23 25 22 18 13 12 16 21 24 21 17 18 20 20 22 24 25 24
21 21 21 22 22 22 23 23 24 25 26 25 25 26 27 27 26 26 25 26 28 31 30 24 25 28 27 23 20 16 13 15 20 22 19 17 18 18 19 21 23 23
20 21 21 22 22 22 23 23 23 24 25 25 25 26 26 27 27 26 25 25 26 29 31 27 25 30 32 26 23 21 17 15 17 20 21 18 16 14 14 17 20 21
20 21 21 22 22 22 23 23 23 23 23 24 23 24 24 25 25 25 25 26 25 26 31 31 28 32 35 29 24 23 20 17 16 17 20 20 20 17 14 15 19 21
20 21 21 22 22 23 23 23 23 23 23 23 22 22 23 24 23 24 26 28 26 25 28 31 31 35 38 34 28 24 22 19 15 13 15 18 22 22 18 16 19 20
21 21 21 21 22 22 23 23 22 22 23 23 23 22 23 23 22 22 24 26 26 24 26 29 30 35 39 38 32 26 23 20 14 11 11 13 17 22 21 19 21 21
21 21 21 21 22 22 22 22 22 22 22 23 23 23 23 23 23 22 22 23 24 26 28 30 29 32 39 41 36 30 25 19 13 11 12 12 13 15 18 16 16 19
21 21 21 21 21 21 22 22 22 22 23 22 22 23 24 24 24 24 23 23 24 25 29 31 30 31 38 43 40 35 29 20 13 12 14 15 13 8 12 10 7 10
Wind_Direction
328 324 321 318 314 310 303 293 289 290 289 284 280 276 274 272 268 261 253 247 246 245 244 242 240 240 238 233 228 226 223 221 222 222 222 222 221 219 221 224 222 222
333 328 323 318 315 314 309 300 290 286 282 280 282 281 278 277 274 270 264 257 251 247 246 245 241 241 239 235 229 224 224 225 224 223 221 220 220 221 223 222 221 222
335 330 325 320 316 313 312 309 299 290 284 284 285 285 283 280 277 276 272 267 261 255 253 248 243 243 241 239 235 229 226 225 225 224 221 219 220 221 221 220 220 222
340 335 328 322 318 315 311 308 303 298 294 290 288 287 288 285 280 278 275 272 265 261 261 256 249 246 241 239 238 234 228 225 223 223 222 221 221 221 219 217 218 218
345 343 337 329 323 319 315 307 304 304 303 299 294 289 287 285 280 276 274 272 267 262 260 254 248 245 240 238 237 235 231 227 224 222 221 220 221 222 219 216 216 217
347 347 344 340 334 327 320 314 311 310 309 309 305 298 288 281 279 279 274 270 269 265 258 252 251 248 243 239 236 234 232 228 228 226 223 221 221 222 220 218 218 219
350 349 347 346 343 336 329 323 321 317 313 312 312 308 301 292 284 281 278 272 269 266 261 259 258 252 247 241 235 234 234 232 230 229 225 221 220 221 220 219 218 219
352 351 349 348 346 343 338 332 326 322 317 314 312 310 309 304 293 283 278 274 270 267 265 264 261 253 247 240 234 233 235 234 230 227 226 222 218 218 217 214 213 218
355 354 351 350 349 346 342 337 331 326 322 318 314 311 309 306 300 290 281 276 272 268 266 264 259 251 243 236 234 234 232 231 229 226 225 224 221 219 216 213 213 219
357 355 354 352 351 347 344 340 336 332 328 323 317 312 308 306 304 297 287 280 274 268 264 263 259 251 246 240 235 234 229 229 231 230 227 227 226 223 220 216 218 221
359 357 356 354 352 349 345 342 340 337 333 328 322 316 309 305 305 302 295 285 277 273 269 268 264 253 247 240 232 231 231 229 230 229 228 230 229 227 224 221 224 227
1 360 357 356 354 351 348 345 343 341 338 334 329 323 317 309 305 304 301 294 286 284 281 275 270 260 249 239 232 230 231 231 230 228 228 230 230 230 229 226 226 229
3 1 359 358 356 353 351 348 346 345 343 341 336 331 327 322 316 310 305 302 296 292 289 284 279 272 260 245 234 229 231 235 234 233 234 233 233 232 231 229 227 229
4 1 359 359 357 356 355 353 350 348 347 345 343 340 338 336 335 329 319 309 302 296 294 290 281 271 266 256 243 232 232 238 238 239 241 238 236 234 231 232 231 230
5 3 1 360 359 359 359 357 355 353 351 350 349 347 346 347 349 349 345 335 323 313 305 298 286 274 272 269 262 249 238 237 237 238 240 239 237 238 234 234 234 232
6 4 2 2 1 1 0 360 359 357 355 354 353 351 351 354 357 358 358 357 352 346 337 326 316 306 292 278 270 259 242 233 237 238 238 237 236 237 238 235 234 233
7 6 4 4 3 2 1 2 2 1 0 359 358 357 355 356 0 2 1 1 359 359 360 358 354 342 314 286 272 261 244 235 240 241 237 235 233 234 237 235 232 233
8 7 6 6 5 4 3 3 3 3 3 3 2 1 359 358 0 2 3 4 3 2 3 359 354 352 339 316 287 264 251 244 244 244 239 235 234 232 233 233 232 234
9 8 8 6 5 5 4 3 5 6 5 5 3 2 2 2 2 3 3 5 4 4 4 357 349 351 348 338 323 288 262 251 245 246 247 242 238 236 236 236 234 231
11 10 9 8 7 5 4 4 4 5 6 6 5 4 5 4 3 5 5 5 5 5 6 2 352 351 350 342 334 320 293 269 254 248 249 250 245 238 235 236 234 229
11 10 9 9 9 7 7 6 3 4 4 4 5 7 8 7 5 5 6 6 7 5 6 6 357 353 354 348 338 329 313 293 274 258 252 254 252 244 237 233 230 228
10 10 9 9 9 9 9 7 5 5 3 0 0 3 6 7 8 9 8 7 7 7 8 8 2 357 358 354 346 339 325 305 286 267 259 257 254 253 252 245 239 235
11 10 9 8 9 10 9 8 7 6 4 3 1 359 1 2 4 9 11 8 8 8 8 9 6 3 3 360 353 349 338 322 303 278 265 261 256 254 255 256 253 246
13 11 10 10 11 10 9 8 7 6 5 6 5 2 1 360 358 2 8 9 12 11 9 8 7 5 7 6 360 355 349 337 323 301 284 277 268 259 254 258 259 249
15 12 11 12 13 13 11 9 8 7 5 5 7 7 5 3 1 0 2 6 11 12 10 10 9 8 11 12 7 2 359 351 341 330 319 317 305 270 253 256 255 240
17 14 13 13 12 12 14 12 10 10 8 6 8 8 7 7 7 6 5 5 6 8 9 9 9 9 13 16 15 10 7 3 355 349 343 342 339 288 244 250 246 220
Height
813 812 810 808 807 805 804 803 802 800 799 798 797 796 795 794 793 792 791 790 790 789 789 789 790 789 789 789 790 790 790 791 792 794 798 799 800 800 801 803 805 807
813 812 810 809 807 806 804 802 801 800 798 797 796 795 794 792 791 789 788 788 788 787 786 787 788 788 788 787 787 787 787 788 790 792 794 795 796 797 798 800 803 804
813 812 810 809 807 805 803 801 800 798 797 796 794 794 792 791 789 787 786 786 786 785 784 784 785 785 786 785 785 784 784 785 787 788 791 791 793 794 795 797 800 802
813 812 810 809 807 805 803 801 799 797 796 794 793 792 791 789 787 786 784 784 784 783 782 782 782 783 783 783 783 783 782 782 784 786 787 788 790 792 793 795 797 799
813 812 810 809 807 805 803 801 799 797 795 793 792 790 789 787 786 784 782 782 782 781 780 779 780 780 781 781 782 781 781 781 782 784 784 785 787 790 791 793 794 795
814 812 810 809 807 805 803 801 799 797 795 792 790 789 787 786 784 782 781 780 779 778 777 777 777 777 778 779 779 779 779 779 780 781 782 783 785 788 789 790 791 792
814 812 811 809 807 805 803 801 799 797 795 792 790 788 786 785 783 781 780 778 777 776 775 775 774 775 776 777 776 776 776 776 777 778 779 780 782 785 786 787 787 788
814 813 811 809 807 805 803 801 799 797 794 792 790 788 786 784 782 781 779 777 776 775 774 773 772 772 773 774 774 774 774 774 775 776 776 777 779 781 783 783 784 786
814 813 811 809 807 805 803 801 799 797 794 792 789 787 785 783 781 779 778 776 775 774 772 771 770 770 770 771 771 771 772 772 773 773 774 775 777 778 779 780 782 784
815 813 812 809 807 805 804 802 799 797 794 792 789 787 785 783 781 778 776 775 773 772 770 770 769 768 768 769 769 769 770 771 771 771 772 773 774 775 775 777 779 781
816 814 812 809 807 806 804 802 800 797 794 792 789 787 785 783 780 778 775 773 772 770 769 768 768 767 767 767 768 768 769 769 770 770 770 771 772 772 773 775 777 778
816 814 812 810 808 806 805 803 800 798 795 792 790 787 785 782 780 778 775 773 771 770 769 767 766 766 766 765 766 767 768 768 768 768 768 769 770 770 772 773 775 776
817 815 813 811 809 808 806 804 801 799 796 793 791 788 785 782 780 777 775 772 771 770 768 766 766 765 764 763 763 765 767 766 766 767 767 767 768 768 769 771 773 775
818 817 815 813 811 809 807 805 802 800 797 794 792 789 786 783 779 777 774 772 771 769 767 766 766 764 763 763 763 764 765 765 765 765 765 766 766 766 767 768 769 771
820 819 817 815 813 810 808 806 803 801 798 795 793 790 787 783 780 777 774 772 770 769 767 767 767 765 763 763 763 763 764 764 764 764 764 764 764 764 764 765 766 768
822 821 819 817 814 812 810 807 804 802 799 797 794 791 788 784 781 778 775 773 771 769 768 767 767 765 763 762 763 763 763 763 763 763 763 762 761 761 761 762 763 764
824 823 821 818 816 813 811 808 806 804 801 799 796 793 790 786 783 780 777 775 773 771 769 768 766 764 762 761 761 761 761 761 762 762 761 759 759 759 759 759 761 762
826 824 822 820 818 815 813 810 808 806 803 801 798 795 792 789 785 782 779 777 775 773 772 770 768 765 763 761 760 759 759 759 760 760 759 758 757 757 758 758 759 761
827 826 824 822 819 817 815 812 810 808 806 803 801 798 796 792 789 785 782 780 778 775 774 772 769 767 765 763 760 758 758 757 757 758 757 756 755 756 757 758 758 759
829 827 826 823 821 819 817 814 812 810 808 805 803 801 798 795 792 788 785 783 780 778 776 774 771 768 766 764 761 759 757 756 756 756 755 755 755 755 756 757 757 758
830 829 827 825 823 821 819 817 815 812 810 807 805 803 801 798 796 792 789 787 784 781 779 776 774 770 767 764 762 759 757 756 755 754 754 754 753 753 755 756 756 756
832 830 828 826 824 823 821 819 817 815 812 810 807 805 803 801 798 796 793 790 787 784 781 779 776 772 768 764 761 759 757 755 754 753 752 752 752 752 753 754 755 756
834 832 830 828 826 824 823 821 819 817 814 812 810 807 805 803 800 798 796 793 790 787 784 781 778 774 769 765 762 759 757 755 753 752 751 751 751 751 752 753 753 754
836 834 832 830 828 826 825 823 821 819 817 814 812 810 807 805 803 800 798 795 793 791 788 784 780 776 772 767 763 760 757 755 753 752 751 751 750 750 751 752 752 752
838 837 834 832 830 829 827 825 823 821 819 817 814 812 810 808 805 803 800 798 795 793 791 787 784 780 775 770 765 761 758 755 754 753 752 751 750 749 750 751 751 750
840 839 837 835 833 831 829 827 825 823 822 819 816 814 812 810 808 805 803 801 798 796 793 790 787 784 779 774 769 764 759 756 755 753 752 751 750 749 750 751 752 751